Weather Roundup
Issued by NWS Chicago, IL

Home | Current Version | Previous Version | Text Only | Print | Product List | Glossary On
Versions: 1 2 3 4 5 6 7 8 9 10 11 12 13 14 15 16 17 18 19 20 21 22 23 24 25 26 27 28 29 30 31 32 33 34 35 36 37 38 39 40 41 42 43 44 45 46 47 48 49 50
000
NZUS59 KLOT 112210
HRRLOT

CHICAGO AREA WEATHER ROUNDUP
NATIONAL WEATHER SERVICE CHICAGO/ROMEOVILLE IL
500 PM CDT FRI JUL 11 2014

NOTE: "FAIR" INDICATES FEW OR NO CLOUDS BELOW 12,000 FEET WITH NO
SIGNIFICANT WEATHER AND/OR OBSTRUCTIONS TO VISIBILITY.

* THESE STATIONS ARE NOT UNDER NWS QUALITY CONTROL. THEY ALSO MAY NOT
  REPORT WEATHER SUCH AS PRECIPITATION OR FOG.

ILZ005-006-012>014-019>023-112300-
NORTHEAST ILLINOIS

CITY           SKY/WX    TMP DP  RH WIND       PRES   REMARKS
OHARE          LGT RAIN  73  56  54 S10       30.09F
MIDWAY         CLOUDY    81  51  35 S12       30.09F HX  80
AURORA         CLOUDY    78  56  46 S12       30.11F
LANSING*       PTSUNNY   78  52  40 S6        30.13F
JOLIET*        PTSUNNY   77  56  48 S7        30.12F
WAUKEGAN       CLOUDY    71  56  58 SE7       30.10F
DUPAGE AIRPORT CLOUDY    76  55  48 S7        30.10F
WHEELING       LGT RAIN  74  59  59 S7        30.11F
KANKAKEE*      PTSUNNY   78  60  55 SE8       30.13F
MORRIS*        CLOUDY    78  61  55 S5        30.11S HX  80
LEWIS AIRPORT* PTSUNNY   77  55  46 S10       30.11F
NORTHERLY IS     N/A     71  61  70 E12         N/A
$$

WIZ051-052-058>065-066-070>072-112300-
SOUTHEAST WISCONSIN

CITY           SKY/WX    TMP DP  RH WIND       PRES   REMARKS
MILWAUKEE      CLOUDY    71  53  52 SE9       30.10F
KENOSHA*       CLOUDY    72  54  53 S14       30.10F
RACINE*        CLOUDY    71  52  50 S9        30.11F
BURLINGTON     CLOUDY    72  56  57 SE8       30.11R
WAUKESHA       SUNNY     73  54  49 S12       30.12F
WEST BEND      PTSUNNY   73  54  49 S9        30.10S
$$

INZ001>003-010>013-019-020-112300-
NORTHWEST INDIANA

CITY           SKY/WX    TMP DP  RH WIND       PRES   REMARKS
GARY*          PTSUNNY   81  54  39 SE5       30.14F HX  80
MICHIGAN CITY* NOT AVBL
RENSSELAER*    NOT AVBL
VALPARAISO     CLOUDY    78  55  44 S7        30.15F
$$

LMZ740>746-112300-
SOUTHERN LAKE MICHIGAN

STATION/POSITION TIME  SKY/WX   TEMP WIND        PRES    VSBY
                                AIR  DIR/SP/G
                 (UTC)          (F)  (DEG/KT/KT) (MB)    (MI)
HARRISON CRIB    2200            71  110/ 15/ 17   N/A
BURNHAM HARBOR   2200            71  110/ 10/ 10   N/A
CALUMET HARBOR   2200            74   80/  7/  9 1020.6F
BURNS HARBOR     NOT AVBL
MICHIGAN CITY    2200            73   20/  6/  7   N/A
$$

ABBREVIATIONS USED IN REMARKS
   TC - TEMPERATURE IN CELSIUS
  WCI - WIND CHILL INDEX
   HX - HEAT INDEX
  VSB - VISIBILITY
$$



USA.gov is the U.S. government's official web portal to all federal, state and local government web resources and services.